Location: U-46 Planetarium
(42.0300°N, 88.2740°W)
Time: 00:39:54
(UTC-05:00)

Cosmos 1515 - Pass Details

Date: 16 December 2017
Orbit: 509 x 517 km, 82.5° (Epoch: 25 April)

Event Time Altitude Azimuth Distance (km) Brightness Sun altitude
Rises 17:34:28 0° 166° (SSE) 2,603 7.3 -12.8°
Reaches altitude 10° 17:36:42 10° 157° (SSE) 1,723 6.3 -13.2°
Maximum altitude 17:40:07 33° 92° (E) 871 4.3 -13.8°
Enters shadow 17:41:54 22° 44° (NE) 1,169 5.0 -14.1°
